Time,TemperatureF,DewpointF,PressureIn,WindDirection,WindDirectionDegrees,WindSpeedMPH,WindSpeedGustMPH,Humidity,HourlyPrecipIn,Conditions,Clouds,dailyrainin,SoftwareType,DateUTC
2013-01-14 00:03:00,6.0,1.0,-100.00,WNW,300,0.0,0.0,80,0.00,,,-99.99,,2013-01-14 06:03:00,
2013-01-14 00:12:00,6.0,1.0,-100.00,WNW,300,0.0,0.0,80,0.00,,,-99.99,,2013-01-14 06:12:00,
2013-01-14 00:22:00,6.0,1.0,-100.00,WNW,300,0.0,0.0,80,0.00,,,-99.99,,2013-01-14 06:22:00,
2013-01-14 00:31:00,5.0,1.0,-100.00,WNW,285,0.0,0.0,83,0.00,,,-99.99,,2013-01-14 06:31:00,
2013-01-14 00:53:00,5.0,1.0,-100.00,WNW,285,0.0,0.0,83,0.00,,,-99.99,,2013-01-14 06:53:00,
2013-01-14 01:02:00,5.0,1.0,-100.00,WNW,285,0.0,0.0,83,0.00,,,-99.99,,2013-01-14 07:02:00,
2013-01-14 01:12:00,5.0,1.0,-100.00,WNW,285,0.0,0.0,83,0.00,,,-99.99,,2013-01-14 07:12:00,
2013-01-14 01:22:00,5.0,1.0,-100.00,WNW,285,0.0,0.0,83,0.00,,,-99.99,,2013-01-14 07:22:00,
2013-01-14 01:53:00,5.0,2.0,-100.00,WNW,300,0.0,0.0,87,0.00,,,-99.99,,2013-01-14 07:53:00,
2013-01-14 02:02:00,5.0,2.0,-100.00,WNW,300,0.0,0.0,87,0.00,,,-99.99,,2013-01-14 08:02:00,
2013-01-14 02:12:00,5.0,2.0,-100.00,WNW,300,0.0,0.0,87,0.00,,,-99.99,,2013-01-14 08:12:00,
2013-01-14 02:22:00,5.0,2.0,-100.00,WNW,300,0.0,0.0,87,0.00,,,-99.99,,2013-01-14 08:22:00,
2013-01-14 02:32:00,5.0,2.0,-100.00,WNW,300,0.0,0.0,87,0.00,,,-99.99,,2013-01-14 08:32:00,
2013-01-14 02:33:00,4.0,2.0,-100.00,WNW,295,0.0,0.0,90,0.00,,,-99.99,,2013-01-14 08:33:00,
2013-01-14 02:53:00,4.0,2.0,-100.00,WNW,295,0.0,0.0,90,0.00,,,-99.99,,2013-01-14 08:53:00,
2013-01-14 03:02:00,4.0,2.0,-100.00,WNW,295,0.0,0.0,90,0.00,,,-99.99,,2013-01-14 09:02:00,
2013-01-14 03:12:00,4.0,2.0,-100.00,WNW,295,0.0,0.0,90,0.00,,,-99.99,,2013-01-14 09:12:00,
2013-01-14 03:22:00,4.0,2.0,-100.00,WNW,295,0.0,0.0,90,0.00,,,-99.99,,2013-01-14 09:22:00,
2013-01-14 03:32:00,4.0,2.0,-100.00,WNW,290,0.0,0.0,91,0.00,,,-99.99,,2013-01-14 09:32:00,
2013-01-14 03:53:00,4.0,2.0,-100.00,WNW,290,0.0,0.0,91,0.00,,,-99.99,,2013-01-14 09:53:00,
2013-01-14 04:02:00,4.0,2.0,-100.00,WNW,290,0.0,0.0,91,0.00,,,-99.99,,2013-01-14 10:02:00,
2013-01-14 04:12:00,4.0,2.0,-100.00,WNW,290,0.0,0.0,91,0.00,,,-99.99,,2013-01-14 10:12:00,
2013-01-14 04:22:00,4.0,2.0,-100.00,WNW,290,0.0,0.0,91,0.00,,,-99.99,,2013-01-14 10:22:00,
2013-01-14 04:53:00,4.0,2.0,-100.00,West,270,0.0,0.0,91,0.00,,,-99.99,,2013-01-14 10:53:00,
2013-01-14 05:02:00,4.0,2.0,-100.00,West,270,0.0,0.0,91,0.00,,,-99.99,,2013-01-14 11:02:00,
2013-01-14 05:12:00,4.0,2.0,-100.00,West,270,0.0,0.0,91,0.00,,,-99.99,,2013-01-14 11:12:00,
2013-01-14 05:22:00,4.0,2.0,-100.00,West,270,0.0,0.0,91,0.00,,,-99.99,,2013-01-14 11:22:00,
2013-01-14 05:32:00,4.0,2.0,-100.00,West,270,0.0,0.0,91,0.00,,,-99.99,,2013-01-14 11:32:00,
2013-01-14 06:03:00,4.0,2.0,-100.00,WNW,290,0.0,0.0,91,0.00,,,-99.99,,2013-01-14 12:03:00,
2013-01-14 06:12:00,4.0,2.0,-100.00,WNW,290,0.0,0.0,91,0.00,,,-99.99,,2013-01-14 12:12:00,
2013-01-14 06:23:00,4.0,2.0,-100.00,WNW,290,0.0,0.0,91,0.00,,,-99.99,,2013-01-14 12:23:00,
2013-01-14 06:33:00,4.0,2.0,-100.00,WNW,290,0.0,0.0,91,0.00,,,-99.99,,2013-01-14 12:33:00,
2013-01-14 06:53:00,4.0,2.0,-100.00,West,265,0.0,0.0,91,0.00,,,-99.99,,2013-01-14 12:53:00,
2013-01-14 07:03:00,4.0,2.0,-100.00,West,265,0.0,0.0,91,0.00,,,-99.99,,2013-01-14 13:03:00,
2013-01-14 07:12:00,4.0,2.0,-100.00,West,265,0.0,0.0,91,0.00,,,-99.99,,2013-01-14 13:12:00,
2013-01-14 07:23:00,4.0,2.0,-100.00,West,265,0.0,0.0,91,0.00,,,-99.99,,2013-01-14 13:23:00,
2013-01-14 07:33:00,4.0,2.0,-100.00,WNW,285,0.0,0.0,91,0.00,,,-99.99,,2013-01-14 13:33:00,
2013-01-14 07:53:00,4.0,2.0,-100.00,WNW,285,0.0,0.0,91,0.00,,,-99.99,,2013-01-14 13:53:00,
2013-01-14 08:03:00,4.0,2.0,-100.00,WNW,285,0.0,0.0,91,0.00,,,-99.99,,2013-01-14 14:03:00,
2013-01-14 08:13:00,4.0,2.0,-100.00,WNW,285,0.0,0.0,91,0.00,,,-99.99,,2013-01-14 14:13:00,
2013-01-14 08:22:00,4.0,2.0,-100.00,WNW,285,0.0,0.0,91,0.00,,,-99.99,,2013-01-14 14:22:00,
2013-01-14 08:33:00,6.0,4.0,-100.00,WNW,285,0.0,0.0,90,0.00,,,-99.99,,2013-01-14 14:33:00,
2013-01-14 08:53:00,6.0,4.0,-100.00,WNW,285,0.0,0.0,90,0.00,,,-99.99,,2013-01-14 14:53:00,
2013-01-14 09:03:00,6.0,4.0,-100.00,WNW,285,0.0,0.0,90,0.00,,,-99.99,,2013-01-14 15:03:00,
2013-01-14 09:12:00,6.0,4.0,-100.00,WNW,285,0.0,0.0,90,0.00,,,-99.99,,2013-01-14 15:12:00,
2013-01-14 09:23:00,6.0,4.0,-100.00,WNW,285,0.0,0.0,90,0.00,,,-99.99,,2013-01-14 15:23:00,
2013-01-14 09:32:00,13.0,7.0,-100.00,West,280,0.0,0.0,79,0.00,,,-99.99,,2013-01-14 15:32:00,
2013-01-14 09:53:00,13.0,7.0,-100.00,West,280,0.0,0.0,79,0.00,,,-99.99,,2013-01-14 15:53:00,
2013-01-14 10:03:00,13.0,7.0,-100.00,West,280,0.0,0.0,79,0.00,,,-99.99,,2013-01-14 16:03:00,
2013-01-14 10:12:00,13.0,7.0,-100.00,West,280,0.0,0.0,79,0.00,,,-99.99,,2013-01-14 16:12:00,
2013-01-14 10:23:00,13.0,7.0,-100.00,West,280,0.0,0.0,79,0.00,,,-99.99,,2013-01-14 16:23:00,
2013-01-14 10:32:00,15.0,6.0,-100.00,WNW,300,0.0,0.0,69,0.00,,,-99.99,,2013-01-14 16:32:00,
2013-01-14 10:53:00,15.0,6.0,-100.00,WNW,300,0.0,0.0,69,0.00,,,-99.99,,2013-01-14 16:53:00,
2013-01-14 11:03:00,15.0,6.0,-100.00,WNW,300,0.0,0.0,69,0.00,,,-99.99,,2013-01-14 17:03:00,
2013-01-14 11:12:00,15.0,6.0,-100.00,WNW,300,0.0,0.0,69,0.00,,,-99.99,,2013-01-14 17:12:00,
2013-01-14 11:23:00,15.0,6.0,-100.00,WNW,300,0.0,0.0,69,0.00,,,-99.99,,2013-01-14 17:23:00,
2013-01-14 11:31:00,18.0,7.0,-100.00,NW,305,0.0,0.0,62,0.00,,,-99.99,,2013-01-14 17:31:00,
2013-01-14 11:54:00,18.0,7.0,-100.00,NW,305,0.0,0.0,62,0.00,,,-99.99,,2013-01-14 17:54:00,
2013-01-14 12:03:00,18.0,7.0,-100.00,NW,305,0.0,0.0,62,0.00,,,-99.99,,2013-01-14 18:03:00,
2013-01-14 12:13:00,18.0,7.0,-100.00,NW,305,0.0,0.0,62,0.00,,,-99.99,,2013-01-14 18:13:00,
2013-01-14 12:23:00,18.0,7.0,-100.00,NW,305,0.0,0.0,62,0.00,,,-99.99,,2013-01-14 18:23:00,
2013-01-14 12:31:00,18.0,7.0,-100.00,WNW,285,0.0,0.0,64,0.00,,,-99.99,,2013-01-14 18:31:00,
2013-01-14 12:53:00,18.0,7.0,-100.00,WNW,285,0.0,0.0,64,0.00,,,-99.99,,2013-01-14 18:53:00,
2013-01-14 13:03:00,18.0,7.0,-100.00,WNW,285,0.0,0.0,64,0.00,,,-99.99,,2013-01-14 19:03:00,
2013-01-14 13:12:00,18.0,7.0,-100.00,WNW,285,0.0,0.0,64,0.00,,,-99.99,,2013-01-14 19:12:00,
2013-01-14 13:22:00,18.0,7.0,-100.00,WNW,285,0.0,0.0,64,0.00,,,-99.99,,2013-01-14 19:22:00,
2013-01-14 13:33:00,19.0,8.0,-100.00,WSW,240,0.0,0.0,61,0.00,,,-99.99,,2013-01-14 19:33:00,
2013-01-14 13:53:00,19.0,8.0,-100.00,WSW,240,0.0,0.0,61,0.00,,,-99.99,,2013-01-14 19:53:00,
2013-01-14 14:03:00,19.0,8.0,-100.00,WSW,240,0.0,0.0,61,0.00,,,-99.99,,2013-01-14 20:03:00,
2013-01-14 14:13:00,19.0,8.0,-100.00,WSW,240,0.0,0.0,61,0.00,,,-99.99,,2013-01-14 20:13:00,
2013-01-14 14:22:00,19.0,8.0,-100.00,WSW,240,0.0,0.0,61,0.00,,,-99.99,,2013-01-14 20:22:00,
2013-01-14 14:31:00,20.0,8.0,-100.00,West,280,0.0,0.0,61,0.00,,,-99.99,,2013-01-14 20:31:00,
2013-01-14 14:53:00,20.0,8.0,-100.00,West,280,0.0,0.0,61,0.00,,,-99.99,,2013-01-14 20:53:00,
2013-01-14 15:03:00,20.0,8.0,-100.00,West,280,0.0,0.0,61,0.00,,,-99.99,,2013-01-14 21:03:00,
2013-01-14 15:12:00,20.0,8.0,-100.00,West,280,0.0,0.0,61,0.00,,,-99.99,,2013-01-14 21:12:00,
2013-01-14 15:23:00,20.0,8.0,-100.00,West,280,0.0,0.0,61,0.00,,,-99.99,,2013-01-14 21:23:00,
2013-01-14 15:32:00,19.0,8.0,-100.00,WNW,300,0.0,0.0,63,0.00,,,-99.99,,2013-01-14 21:32:00,
2013-01-14 15:53:00,19.0,8.0,-100.00,WNW,300,0.0,0.0,63,0.00,,,-99.99,,2013-01-14 21:53:00,
2013-01-14 16:03:00,19.0,8.0,-100.00,WNW,300,0.0,0.0,63,0.00,,,-99.99,,2013-01-14 22:03:00,
2013-01-14 16:12:00,19.0,8.0,-100.00,WNW,300,0.0,0.0,63,0.00,,,-99.99,,2013-01-14 22:12:00,
2013-01-14 16:23:00,19.0,8.0,-100.00,WNW,300,0.0,0.0,63,0.00,,,-99.99,,2013-01-14 22:23:00,
2013-01-14 16:31:00,18.0,9.0,-100.00,West,275,0.0,0.0,66,0.00,,,-99.99,,2013-01-14 22:31:00,
2013-01-14 16:53:00,18.0,9.0,-100.00,West,275,0.0,0.0,66,0.00,,,-99.99,,2013-01-14 22:53:00,
2013-01-14 17:03:00,18.0,9.0,-100.00,West,275,0.0,0.0,66,0.00,,,-99.99,,2013-01-14 23:03:00,
2013-01-14 17:12:00,18.0,9.0,-100.00,West,275,0.0,0.0,66,0.00,,,-99.99,,2013-01-14 23:12:00,
2013-01-14 17:23:00,18.0,9.0,-100.00,West,275,0.0,0.0,66,0.00,,,-99.99,,2013-01-14 23:23:00,
2013-01-14 17:30:00,16.0,8.0,-100.00,WNW,290,0.0,0.0,70,0.00,,,-99.99,,2013-01-14 23:30:00,
2013-01-14 17:53:00,16.0,8.0,-100.00,WNW,290,0.0,0.0,70,0.00,,,-99.99,,2013-01-14 23:53:00,
2013-01-14 18:03:00,16.0,8.0,-100.00,WNW,290,0.0,0.0,70,0.00,,,-99.99,,2013-01-15 00:03:00,
2013-01-14 18:12:00,16.0,8.0,-100.00,WNW,290,0.0,0.0,70,0.00,,,-99.99,,2013-01-15 00:12:00,
2013-01-14 18:22:00,16.0,8.0,-100.00,WNW,290,0.0,0.0,70,0.00,,,-99.99,,2013-01-15 00:22:00,
2013-01-14 18:31:00,17.0,10.0,-100.00,WNW,295,0.0,0.0,73,0.00,,,-99.99,,2013-01-15 00:31:00,
2013-01-14 18:53:00,17.0,10.0,-100.00,WNW,295,0.0,0.0,73,0.00,,,-99.99,,2013-01-15 00:53:00,
2013-01-14 19:02:00,17.0,10.0,-100.00,WNW,295,0.0,0.0,73,0.00,,,-99.99,,2013-01-15 01:02:00,
2013-01-14 19:12:00,17.0,10.0,-100.00,WNW,295,0.0,0.0,73,0.00,,,-99.99,,2013-01-15 01:12:00,
2013-01-14 19:22:00,17.0,10.0,-100.00,WNW,295,0.0,0.0,73,0.00,,,-99.99,,2013-01-15 01:22:00,
2013-01-14 19:31:00,15.0,9.0,-100.00,WNW,300,0.0,0.0,77,0.00,,,-99.99,,2013-01-15 01:31:00,
2013-01-14 19:52:00,15.0,9.0,-100.00,WNW,300,0.0,0.0,77,0.00,,,-99.99,,2013-01-15 01:52:00,
2013-01-14 20:02:00,15.0,9.0,-100.00,WNW,300,0.0,0.0,77,0.00,,,-99.99,,2013-01-15 02:02:00,
2013-01-14 20:12:00,15.0,9.0,-100.00,WNW,300,0.0,0.0,77,0.00,,,-99.99,,2013-01-15 02:12:00,
2013-01-14 20:22:00,15.0,9.0,-100.00,WNW,300,0.0,0.0,77,0.00,,,-99.99,,2013-01-15 02:22:00,
2013-01-14 20:30:00,14.0,9.0,-100.00,WNW,295,0.0,0.0,81,0.00,,,-99.99,,2013-01-15 02:30:00,
2013-01-14 20:53:00,14.0,9.0,-100.00,WNW,295,0.0,0.0,81,0.00,,,-99.99,,2013-01-15 02:53:00,
2013-01-14 21:02:00,14.0,9.0,-100.00,WNW,295,0.0,0.0,81,0.00,,,-99.99,,2013-01-15 03:02:00,
2013-01-14 21:12:00,14.0,9.0,-100.00,WNW,295,0.0,0.0,81,0.00,,,-99.99,,2013-01-15 03:12:00,
2013-01-14 21:22:00,14.0,9.0,-100.00,WNW,295,0.0,0.0,81,0.00,,,-99.99,,2013-01-15 03:22:00,
2013-01-14 21:30:00,13.0,9.0,-100.00,WNW,295,0.0,0.0,87,0.00,,,-99.99,,2013-01-15 03:30:00,
2013-01-14 21:53:00,13.0,9.0,-100.00,WNW,295,0.0,0.0,87,0.00,,,-99.99,,2013-01-15 03:53:00,
2013-01-14 22:02:00,13.0,9.0,-100.00,WNW,295,0.0,0.0,87,0.00,,,-99.99,,2013-01-15 04:02:00,
2013-01-14 22:12:00,13.0,9.0,-100.00,WNW,295,0.0,0.0,87,0.00,,,-99.99,,2013-01-15 04:12:00,
2013-01-14 22:22:00,13.0,9.0,-100.00,WNW,295,0.0,0.0,87,0.00,,,-99.99,,2013-01-15 04:22:00,
2013-01-14 22:30:00,11.0,9.0,-100.00,WNW,295,0.0,0.0,90,0.00,,,-99.99,,2013-01-15 04:30:00,
2013-01-14 22:52:00,11.0,9.0,-100.00,WNW,295,0.0,0.0,90,0.00,,,-99.99,,2013-01-15 04:52:00,
2013-01-14 23:03:00,11.0,9.0,-100.00,WNW,295,0.0,0.0,90,0.00,,,-99.99,,2013-01-15 05:03:00,
2013-01-14 23:12:00,11.0,9.0,-100.00,WNW,295,0.0,0.0,90,0.00,,,-99.99,,2013-01-15 05:12:00,
2013-01-14 23:22:00,11.0,9.0,-100.00,WNW,295,0.0,0.0,90,0.00,,,-99.99,,2013-01-15 05:22:00,
2013-01-14 23:31:00,10.0,8.0,-100.00,WNW,290,0.0,0.0,92,0.00,,,-99.99,,2013-01-15 05:31:00,
2013-01-14 23:53:00,10.0,8.0,-100.00,WNW,290,0.0,0.0,92,0.00,,,-99.99,,2013-01-15 05:53:00,